www.pogodaiklimat.ru

Погода и климат >> Архив погоды >> Япония >> Такада


ПОГОДА в Такаде

  • Прогноз погоды в Такаде
  • Монитор погоды в Такаде

АРХИВ ПОГОДЫ в Такаде

Время (UTC), дата Ветер
(напр.,м/с)
 
Видим.   Явления Облачность Т
(С)
Тd
(С)
f
(%)
Тe
(С)
Тes
(С)
Комфортность P
(гПа)
Po
(гПа)
Тmin
(С)
Tmax
(С)
R
(мм)
R24
(мм)
S
(см)
01 14.07 СВ 2 14 км н/о +24.3 +21.2 83 +31 +31 очень
душно
1000.3 998.6
02 14.07 С 2 14 км н/о +25.6 +21.5 78 +33 +33 очень
душно
1000.4 998.7
03 14.07 СЗ 3 12 км н/о +24.7 +21.2 81 +31 +31 очень
душно
1000.4 998.7
04 14.07 СЗ 3 11 км н/о +24.4 +21.5 84 +31 +31 очень
душно
1000.5 998.8
05 14.07 С 3 10 км н/о +23.8 +21.3 86 +30 +30 очень
душно
1000.7 999.0
06 14.07 СЗ 3 19 км слаб. дождь н/о +23.2 +21.8 92 +31 +31 очень
душно
1001.1 999.4 0.0
07 14.07 С 3 15 км слаб. дождь н/о +22.6 +21.6 94 +30 +30 очень
душно
1001.4 999.7
08 14.07 З 1 4600 м слаб. дождь н/о +22.1 +21.8 98 +29 +29 очень
душно
1001.7 1000.0
09 14.07 С 1 8000 м слаб. дождь н/о +22.1 +21.8 98 +29 +29 очень
душно
1002.1 1000.4
10 14.07 С 2 4600 м слаб. дождь н/о +21.8 +21.6 99 +28 +28 душно 1002.6 1000.9
11 14.07 штиль 0 12 км слаб. дождь н/о +21.8 +21.6 99 +28 +28 душно 1003.1 1001.4
12 14.07 ЮВ 2 8000 м в посл. час дождь н/о +21.5 +21.3 99 +27 +27 душно 1003.7 1002.0 +26.1 4
13 14.07 Ю 1 7000 м дымка н/о +21.6 +21.6 100 +28 +28 очень
душно
1003.9 1002.2
14 14.07 ЮВ 1 7000 м слаб. дождь н/о +21.6 +21.6 100 +28 +28 очень
душно
1004.4 1002.7
15 14.07 Ю 1 8000 м в посл. час дождь н/о +21.5 +21.5 100 +28 +28 очень
душно
1004.3 1002.6
16 14.07 ЮЗ 1 6000 м дымка н/о +21.5 +21.5 100 +28 +28 очень
душно
1004.3 1002.6
17 14.07 Ю 1 7000 м в посл. час дождь н/о +21.4 +21.4 100 +27 +27 душно 1004.4 1002.7
18 14.07 ЮВ 2 11 км {дождь} н/о +21.2 +21.2 100 +27 +27 душно 1004.4 1002.7 0.5
19 14.07 ЮВ 1 9000 м дымка н/о +21.2 +21.2 100 +27 +27 душно 1004.6 1002.9
20 14.07 З 1 5000 м слаб. дождь н/о +21.2 +21.2 100 +27 +27 душно 1005.3 1003.6
21 14.07 Ю 1 3300 м слаб. дождь н/о +21.1 +21.1 100 +26 +26 душно 1005.5 1003.8
22 14.07 Ю 1 10 км в посл. час дождь н/о +21.6 +21.6 100 +28 +28 очень
душно
1005.9 1004.2
23 14.07 Ю 1 11 км н/о +22.1 +21.6 97 +29 +29 очень
душно
1006.0 1004.3
00 15.07 СЗ 1 9000 м дымка {дождь} н/о +23.2 +21.1 88 +31 +31 очень
душно
1006.5 1004.8 +20.9 2
01 15.07 СВ 2 9000 м дымка н/о +26.0 +22.9 83 +35 +35 очень
душно
1006.6 1004.9
02 15.07 С 3 9000 м дымка н/о +25.1 +21.6 81 +32 +32 очень
душно
1006.8 1005.1
03 15.07 С 3 12 км н/о +24.7 +21.4 82 +31 +31 очень
душно
1006.7 1005.0
04 15.07 С 4 12 км н/о +25.2 +21.5 80 +32 +32 очень
душно
1006.7 1005.0
05 15.07 С 4 13 км н/о +24.3 +21.8 86 +31 +31 очень
душно
1007.2 1005.5
06 15.07 С 3 15 км н/о +24.0 +21.3 85 +30 +30 очень
душно
1007.3 1005.6
07 15.07 С 3 6000 м дымка н/о +23.8 +21.5 87 +30 +30 очень
душно
1007.5 1005.8
08 15.07 СЗ 3 9000 м дымка н/о +23.4 +21.1 87 +31 +31 очень
душно
1007.6 1005.9
09 15.07 СЗ 2 12 км н/о +23.5 +21.4 88 +30 +30 очень
душно
1008.0 1006.3
10 15.07 З 2 9000 м дымка н/о +23.1 +21.4 90 +31 +31 очень
душно
1008.6 1006.9
11 15.07 З 2 11 км н/о +22.8 +21.3 91 +30 +30 очень
душно
1009.3 1007.6
12 15.07 З 1 10 км н/о +22.6 +21.2 92 +30 +30 очень
душно
1009.7 1008.0 +26.3
13 15.07 З 2 10 км н/о +22.6 +21.1 91 +30 +30 очень
душно
1009.8 1008.1
14 15.07 ЮЗ 1 11 км н/о +22.6 +21.2 92 +30 +30 очень
душно
1009.8 1008.1
15 15.07 ЮВ 1 12 км в посл. час дождь н/о +22.4 +21.4 94 +29 +29 очень
душно
1009.6 1007.9
16 15.07 З 1 10 км н/о +22.5 +21.5 94 +30 +30 очень
душно
1009.5 1007.8
17 15.07 З 1 9000 м дымка н/о +22.3 +21.3 94 +29 +29 очень
душно
1009.5 1007.8
18 15.07 В 1 13 км {дождь} н/о +22.6 +21.6 94 +30 +30 очень
душно
1009.8 1008.1 0.0
19 15.07 З 1 7000 м дымка н/о +22.2 +21.4 95 +29 +29 очень
душно
1010.5 1008.8
20 15.07 З 1 3300 м слаб. дождь н/о +21.7 +21.7 100 +28 +28 душно 1010.9 1009.2
21 15.07 З 1 1900 м слаб. дождь н/о +21.7 +21.7 100 +28 +28 душно 1011.4 1009.7
22 15.07 З 1 2000 м слаб. дождь н/о +21.8 +21.8 100 +28 +28 душно 1011.9 1010.2
23 15.07 С 2 2800 м в посл. час дождь н/о +22.3 +22.3 100 +30 +30 очень
душно
1011.9 1010.2
00 16.07 С 2 2400 м слаб. дождь н/о +22.3 +22.3 100 +30 +30 очень
душно
1012.0 1010.3 +21.5 3
01 16.07 СЗ 2 8000 м в посл. час дождь н/о +23.7 +22.1 91 +31 +31 очень
душно
1011.8 1010.1
02 16.07 СЗ 2 11 км н/о +25.1 +22.8 87 +33 +33 очень
душно
1011.6 1009.9
03 16.07 С 3 15 км {дождь} н/о +24.9 +22.0 84 +32 +32 очень
душно
1011.4 1009.7
04 16.07 СЗ 3 13 км н/о +24.6 +21.7 84 +31 +31 очень
душно
1011.4 1009.7
05 16.07 СЗ 3 12 км н/о +24.8 +21.9 84 +32 +32 очень
душно
1011.4 1009.7
06 16.07 СЗ 2 10 км {дождь} н/о +24.1 +21.6 86 +31 +31 очень
душно
1011.3 1009.6 0.0
07 16.07 СЗ 2 12 км н/о +23.5 +21.6 89 +30 +30 очень
душно
1011.8 1010.1
08 16.07 СЗ 2 17 км слаб. дождь н/о +23.2 +21.8 92 +31 +31 очень
душно
1012.0 1010.3
09 16.07 СЗ 2 3700 м дождь н/о +22.7 +22.0 96 +31 +31 очень
душно
1012.3 1010.6
10 16.07 штиль 0 8000 м слаб. дождь н/о +22.5 +22.2 98 +30 +30 очень
душно
1012.5 1010.8
11 16.07 ЮВ 2 7000 м в посл. час дождь н/о +22.4 +22.2 99 +30 +30 очень
душно
1012.8 1011.1
12 16.07 ЮВ 1 7000 м дымка {дождь} н/о +22.3 +22.1 99 +30 +30 очень
душно
1013.1 1011.4 +26.2 5
13 16.07 Ю 2 7000 м дымка н/о +22.2 +22.2 100 +30 +30 очень
душно
1013.2 1011.5
14 16.07 ЮВ 2 9000 м дымка н/о +22.2 +21.9 98 +29 +29 очень
душно
1012.6 1010.9
15 16.07 З 2 7000 м дымка н/о +21.9 +21.9 100 +29 +29 очень
душно
1012.5 1010.8
16 16.07 С 1 9000 м дымка н/о +21.9 +21.7 99 +29 +29 очень
душно
1012.3 1010.6
17 16.07 СЗ 2 6000 м дымка н/о +21.7 +21.4 98 +28 +28 душно 1012.6 1010.9
18 16.07 В 1 8000 м дымка н/о +21.9 +21.7 99 +29 +29 очень
душно
1012.8 1011.1
19 16.07 Ю 2 10 км н/о +21.7 +21.7 100 +28 +28 душно 1012.9 1011.2
20 16.07 ЮЗ 1 10 км н/о +21.6 +21.4 99 +28 +28 очень
душно
1013.6 1011.9
21 16.07 ЮВ 1 11 км н/о +22.1 +21.6 97 +29 +29 очень
душно
1013.8 1012.1
22 16.07 Ю 1 11 км н/о +22.8 +21.6 93 +30 +30 очень
душно
1014.2 1012.5
23 16.07 ЮВ 1 10 км н/о +24.2 +22.3 89 +31 +31 очень
душно
1014.1 1012.4
00 17.07 ЮВ 1 15 км н/о +25.4 +21.9 81 +33 +33 очень
душно
1014.0 1012.3 +21.5
01 17.07 В 2 14 км н/о +27.4 +21.7 71 +35 +35 очень
душно
1013.4 1011.7
02 17.07 В 2 11 км н/о +28.5 +22.0 68 +37 +37 очень
душно
1013.2 1011.5
03 17.07 С 4 11 км н/о +27.3 +23.1 78 +37 +37 очень
душно
1013.3 1011.6
04 17.07 С 4 12 км н/о +27.9 +23.1 75 +37 +37 очень
душно
1013.1 1011.4
05 17.07 С 3 8000 м дымка н/о +27.1 +22.5 76 +36 +36 очень
душно
1012.6 1010.9
06 17.07 С 4 10 км н/о +27.3 +22.5 75 +36 +36 очень
душно
1012.4 1010.7
07 17.07 С 5 12 км н/о +26.2 +23.1 83 +35 +35 очень
душно
1012.7 1011.0
08 17.07 С 3 12 км н/о +25.7 +22.4 82 +34 +34 очень
душно
1013.0 1011.3
09 17.07 СЗ 3 7000 м дымка н/о +25.0 +21.9 83 +32 +32 очень
душно
1013.1 1011.4
11 17.07 С 1 11 км н/о +24.2 +22.1 88 +31 +31 очень
душно
1013.7 1012.0
12 17.07 В 1 10 км н/о +23.4 +22.0 92 +32 +32 очень
душно
1013.9 1012.2 +29.4
13 17.07 ЮЗ 1 11 км н/о +22.9 +21.9 94 +31 +31 очень
душно
1013.7 1012.0
14 17.07 З 1 11 км н/о +22.9 +22.1 95 +31 +31 очень
душно
1013.7 1012.0
15 17.07 Ю 1 9000 м слаб. дождь н/о +23.0 +22.3 96 +31 +31 очень
душно
1013.3 1011.6
16 17.07 З 1 8000 м в посл. час дождь н/о +22.6 +22.1 97 +30 +30 очень
душно
1013.0 1011.3
17 17.07 З 1 8000 м дымка н/о +22.0 +21.8 99 +29 +29 очень
душно
1013.0 1011.3
18 17.07 З 1 8000 м дымка {дождь} н/о +21.6 +21.6 100 +28 +28 очень
душно
1013.1 1011.4 0.0
19 17.07 Ю 1 7000 м дымка н/о +21.0 +20.8 99 +27 +27 душно 1012.8 1011.1
20 17.07 Ю 1 8000 м дымка н/о +21.2 +21.0 99 +27 +27 душно 1012.8 1011.1
21 17.07 З 1 9000 м дымка н/о +22.7 +22.0 96 +31 +31 очень
душно
1013.1 1011.4
22 17.07 ЮЗ 1 13 км н/о +25.7 +22.0 80 +33 +33 очень
душно
1013.1 1011.4
23 17.07 ЮВ 1 13 км н/о +27.3 +23.6 80 +37 +37 очень
душно
1012.8 1011.1
00 18.07 ЮВ 3 10 км н/о +28.8 +22.5 69 +38 +38 очень
душно
1012.7 1011.0 +21.0 0.0
01 18.07 В 1 14 км н/о +28.5 +23.0 72 +38 +38 очень
душно
1012.6 1010.9
02 18.07 С 2 9000 м дымка н/о +28.6 +24.2 77 +40 +40 очень
душно
1012.2 1010.5
03 18.07 В 2 11 км н/о +28.9 +22.6 69 +38 +38 очень
душно
1011.8 1010.1
04 18.07 СЗ 4 11 км н/о +27.9 +23.3 76 +38 +38 очень
душно
1011.6 1009.9
05 18.07 С 2 10 км н/о +27.6 +22.8 75 +37 +37 очень
душно
1011.3 1009.6
06 18.07 С 3 20 км слаб. дождь н/о +25.9 +22.6 82 +34 +34 очень
душно
1011.5 1009.8 0.0
07 18.07 В 2 15 км слаб. дождь н/о +25.9 +23.0 84 +35 +35 очень
душно
1011.2 1009.5
08 18.07 В 1 13 км слаб. дождь н/о +25.5 +23.7 90 +35 +35 очень
душно
1011.2 1009.5
09 18.07 С 1 15 км слаб. дождь н/о +25.3 +23.7 91 +34 +34 очень
душно
1011.1 1009.4
10 18.07 СВ 1 11 км слаб. дождь н/о +25.1 +23.7 92 +34 +34 очень
душно
1011.4 1009.7
11 18.07 В 1 16 км слаб. дождь н/о +24.5 +22.9 91 +32 +32 очень
душно
1011.8 1010.1
12 18.07 ЮВ 2 12 км слаб. дождь н/о +23.9 +23.1 95 +32 +32 очень
душно
1011.6 1009.9 +29.4 0.5
13 18.07 ЮЗ 2 16 км слаб. дождь н/о +23.5 +22.5 94 +31 +31 очень
душно
1011.1 1009.4
14 18.07 СВ 1 11 км слаб. дождь н/о +23.2 +22.9 98 +32 +32 очень
душно
1010.6 1008.9
15 18.07 З 1 8000 м слаб. дождь н/о +22.8 +22.6 99 +31 +31 очень
душно
1010.4 1008.7
16 18.07 В 1 7000 м в посл. час дождь н/о +22.8 +22.8 100 +31 +31 очень
душно
1010.7 1009.0
17 18.07 З 1 7000 м дымка н/о +22.6 +22.6 100 +31 +31 очень
душно
1011.0 1009.3
18 18.07 Ю 3 5000 м дымка {дождь} н/о +22.6 +22.6 100 +31 +31 очень
душно
1011.0 1009.3 0.5
19 18.07 В 1 8000 м дымка н/о +22.6 +22.6 100 +31 +31 очень
душно
1011.0 1009.3
20 18.07 Ю 1 6000 м дымка н/о +22.5 +22.3 99 +30 +30 очень
душно
1011.1 1009.4
21 18.07 С 1 10 км н/о +22.9 +22.6 98 +31 +31 очень
душно
1011.4 1009.7
22 18.07 В 1 8000 м дымка н/о +23.4 +22.7 96 +33 +33 очень
душно
1012.0 1010.3
23 18.07 ЮЗ 1 10 км н/о +24.2 +22.6 91 +32 +32 очень
душно
1012.1 1010.4
00 19.07 З 1 7000 м слаб. дождь н/о +24.5 +22.9 91 +32 +32 очень
душно
1012.5 1010.8 +22.4 0.5
01 19.07 СВ 1 14 км в посл. час дождь н/о +25.2 +23.1 88 +34 +34 очень
душно
1012.6 1010.9
02 19.07 ЮВ 2 10 км в посл. час дождь н/о +26.3 +22.4 79 +34 +34 очень
душно
1012.6 1010.9
03 19.07 Ю 3 11 км {дождь} н/о +26.6 +22.9 80 +35 +35 очень
душно
1012.5 1010.8
04 19.07 З 2 14 км н/о +26.2 +22.7 81 +35 +35 очень
душно
1012.5 1010.8
05 19.07 СЗ 3 11 км слаб. дождь н/о +25.8 +23.3 86 +35 +35 очень
душно
1012.4 1010.7
06 19.07 С 3 12 км в посл. час дождь н/о +25.8 +22.3 81 +34 +34 очень
душно
1012.2 1010.5 0.0
07 19.07 СВ 3 16 км слаб. дождь н/о +25.6 +23.5 88 +35 +35 очень
душно
1012.1 1010.4
08 19.07 СВ 2 14 км слаб. дождь н/о +24.9 +23.0 89 +33 +33 очень
душно
1012.6 1010.9
09 19.07 СВ 2 9000 м слаб. дождь н/о +24.4 +23.2 93 +33 +33 очень
душно
1013.1 1011.4
10 19.07 СВ 2 12 км в посл. час дождь н/о +24.1 +23.3 95 +32 +32 очень
душно
1013.4 1011.7
11 19.07 ЮВ 1 12 км н/о +24.1 +23.6 97 +33 +33 очень
душно
1013.8 1012.1
12 19.07 Ю 1 14 км слаб. дождь н/о +24.1 +23.6 97 +33 +33 очень
душно
1014.4 1012.7 +27.5 0.5
13 19.07 З 1 5000 м слаб. дождь н/о +23.7 +23.7 100 +32 +32 очень
душно
1014.5 1012.8
14 19.07 ЮВ 1 9000 м слаб. дождь н/о +23.5 +23.5 100 +32 +32 очень
душно
1014.8 1013.1
15 19.07 ЮВ 1 9000 м в посл. час дождь н/о +23.4 +23.2 99 +33 +33 очень
душно
1014.1 1012.4
16 19.07 Ю 2 9000 м дымка н/о +23.2 +23.0 99 +32 +32 очень
душно
1013.3 1011.6
17 19.07 СВ 1 15 км н/о +23.4 +23.2 99 +33 +33 очень
душно
1013.4 1011.7
18 19.07 ЮВ 2 13 км {дождь} н/о +23.2 +23.0 99 +32 +32 очень
душно
1013.3 1011.6 0.5
19 19.07 З 1 10 км н/о +22.9 +22.9 100 +32 +32 очень
душно
1013.9 1012.2
20 19.07 Ю 2 11 км н/о +22.9 +22.9 100 +32 +32 очень
душно
1014.1 1012.4
21 19.07 В 1 11 км н/о +23.6 +23.3 98 +32 +32 очень
душно
1014.4 1012.7
22 19.07 Ю 2 12 км н/о +24.9 +23.2 90 +33 +33 очень
душно
1014.3 1012.6
23 19.07 Ю 1 16 км н/о +25.9 +23.6 87 +35 +35 очень
душно
1014.7 1013.0
00 20.07 В 2 14 км н/о +27.5 +24.0 81 +38 +38 очень
душно
1014.7 1013.0 +22.8 0.5
01 20.07 В 1 11 км н/о +28.7 +23.6 74 +39 +39 очень
душно
1014.9 1013.2
02 20.07 С 2 13 км н/о +29.8 +23.3 68 +40 +40 очень
душно
1015.3 1013.6
03 20.07 СЗ 3 15 км в посл. час дождь н/о +29.6 +23.1 68 +40 +40 очень
душно
1015.1 1013.4
04 20.07 С 4 13 км н/о +29.2 +22.9 69 +39 +39 очень
душно
1014.9 1013.2
05 20.07 С 3 8000 м дым н/о +28.3 +22.5 71 +37 +37 очень
душно
1014.9 1013.2
06 20.07 С 2 15 км {дождь} н/о +28.0 +22.5 72 +37 +37 очень
душно
1015.1 1013.4 0.0
07 20.07 З 2 12 км н/о +28.2 +23.4 75 +38 +38 очень
душно
1015.0 1013.3
08 20.07 Ю 1 13 км н/о +28.0 +23.2 75 +38 +38 очень
душно
1014.7 1013.0
09 20.07 Ю 2 20 км слаб. дождь н/о +27.0 +23.9 83 +37 +37 очень
душно
1014.5 1012.8
10 20.07 Ю 3 11 км в посл. час дождь н/о +26.5 +24.0 86 +37 +37 очень
душно
1014.0 1012.3
11 20.07 ЮВ 3 11 км н/о +26.0 +23.9 88 +36 +36 очень
душно
1014.3 1012.6
12 20.07 Ю 5 12 км в посл. час дождь н/о +27.0 +22.6 77 +36 +36 очень
душно
1014.1 1012.4 +30.3 0.0
13 20.07 Ю 4 13 км н/о +26.6 +22.5 78 +35 +35 очень
душно
1013.6 1011.9
14 20.07 ЮВ 2 15 км н/о +25.4 +23.1 87 +34 +34 очень
душно
1013.4 1011.7
15 20.07 Ю 3 20 км слаб. дождь н/о +26.3 +22.4 79 +34 +34 очень
душно
1013.5 1011.8
17 20.07 Ю 3 10 км н/о +26.1 +21.8 77 +34 +34 очень
душно
1013.3 1011.6
18 20.07 ЮЗ 2 7000 м дымка {дождь} н/о +25.5 +21.8 80 +33 +33 очень
душно
1013.1 1011.4 0.0
19 20.07 Ю 4 12 км н/о +26.3 +21.7 76 +34 +34 очень
душно
1013.0 1011.3
20 20.07 Ю 3 18 км н/о +25.6 +21.9 80 +33 +33 очень
душно
1012.7 1011.0
21 20.07 ЮВ 3 14 км н/о +25.6 +21.7 79 +33 +33 очень
душно
1012.6 1010.9
22 20.07 Ю 4 13 км н/о +26.7 +21.7 74 +34 +34 очень
душно
1012.5 1010.8
23 20.07 Ю 4 13 км н/о +27.7 +22.6 74 +37 +37 очень
душно
1012.4 1010.7
00 21.07 Ю 4 13 км н/о +29.3 +23.0 69 +39 +39 очень
душно
1011.8 1010.2 +24.8 0.0

 

Местоположение метеостанции Такада (Япония): широта 37.10 долгота 138.25 высота над уровнем моря 18 м.

В архиве по умолчанию представлена погода в Такаде за последнюю неделю. Архивные данные за месяц целиком и за предыдущие месяцы, начиная с января 2011 года, Вы можете получить, выбрав интересующий диапазон дат из раскрывающегося списка и нажав кнопку "Ввод!".


*Определитесь, кто Вы:
робот инопланетянин человек

Внимание! Время в таблицах - всемирное. Для получения местного времени необходимо прибавить поправку, которая равна 9 ч.

Смотрите также архив погоды в соседних городах и на ближайших метеорологических станциях:

Погода в Нагано (Япония) (48 км)
Погода в Каруидзаве (Япония) (88 км)
Погода в Мацумото (Япония) (98 км)
Погода в Тояме (Япония) (103 км)
Погода в Айкаве (Япония) (103 км)
Погода в Маебаши (Япония) (106 км)
Погода в Фушики (Япония) (112 км)
Погода в Ниигате (Япония) (115 км)
Погода в Суве (Япония) (117 км)
Погода в Никко (Япония) (119 км)

Пояснения к столбцам:

Ветер - указаны скорость ветра в м/с - средняя за 10 мин, порывы в срок и между сроками (в фигурных скобках) и направление, откуда дует ветер: С - северный, СВ - северо-восточный, В - восточный, ЮВ - юго-восточный, Ю - южный, ЮЗ - юго-западный, З - западный, СЗ - северо-западный.
Видимость - горизонтальная дальность видимости в метрах или километрах. При видимости от 1 до 10 км при отсутствии осадков обычно наблюдается дымка, при ухудшении видимости до 1 км и менее - туман. В сухую погоду видимость может ухудшаться дымом, пылью или мглою.
Явления - указаны атмосферные явления, наблюдавшиеся в срок или в последний час перед сроком; фигурными скобками обозначены явления, наблюдавшиеся между сроками (за 1-3 часа до срока); квадратными скобками обозначены град или гололедные отложения с указанием их диаметра в мм.
Облачность - указаны через наклонную черту общая и нижняя облачность в баллах и высота нижней границы облаков в метрах; квадратными скобками обозначены формы облаков: Ci - перистые, Cs - перисто-слоистые, Cc - перисто-кучевые, Ac - высококучевые, As - высокослоистые, Sc - слоисто-кучевые, Ns - слоисто-дождевые, Cu - кучевые, Cb - кучево-дождевые. Подробнее классификацию облаков см. в Атласе облаков (PDF).
T - Температура воздуха - температура, измеренная на высоте 2 м над землей.
Td - Температура точки росы - температура, при понижении до которой содержащийся в воздухе водяной пар достигнет насыщения.
f - Относительная влажность воздуха - влажноcть воздуха, измеренная на высоте 2 м над землей.
Te - Эффективная температура - температура, которую ощущает одетый по сезону человек в тени. Характеристика душности погоды. При расчете учитывается влияние влажности воздуха и скорости ветра на теплоощущения человека.
Tes - Эффективная температура на солнце - температура, которую ощущает человек, с поправкой на солнечный нагрев. Характеристика знойности погоды. Зависит от высоты солнца над горизонтом, облачности и скорости ветра. Ночью, в пасмурную погоду, а также при ветре 12 м/с и более поправка равна нулю.
P - Атмосферное давление - приведенное к уровню моря атмосферное давление.
Po - Атмосферное давление - измеренное на уровне метеостанции атмосферное давление.
Tmin - Минимальная температура - минимум температуры воздуха на высоте 2 м над землей.
Tmax - Максимальная температура - максимум температуры воздуха на высоте 2 м над землей.
R - Количество осадков - Количество выпавших осадков за период времени, мм. При наведении курсора мыши на число - период времени, за который выпало указанное количество осадков.
R24 - Количество осадков - Количество выпавших осадков за 24 часа, мм.
S - Снежный покров - Высота снежного покрова, см. При наведении курсора мыши на число - состояние снежного покрова и степень покрытия местности в баллах.